SL-14 R/B

Satellite information

Favourite Embed

Satellite Type and Status

ROCKET BODYIN ORBIT

Key statistics

Satellite SL-14 R/B at a glance.

Uptime

12393

Days in orbit

Revolutions

≈ 14.8

Per day

Orbit

LEO

Low Earth Orbit

Inclination

82.5

Latest

Satellite identification and parameters

Extended collection of information and parameters for SL-14 R/B.

Object identification

Identified? True

Debris? False

Object name: SL-14 R/B

International designator: 1991-039B

Object number (NORAD): 21398

Object ID (CCSDS): 21398

Country: COMMONWEALTH OF INDEPENDENT STATES (CIS)

Current information (Y/N): Y

RCS size: LARGE

Orbital parameters

Period: 97.197 minutes

Inclination: 82.5234 deg

SMA: 7002.663 km

Apoapsis: 640.197 km

Periapsis: 608.859 km

RAAN: 61.2453 deg

Eccentricy: 0.0022376

Argument of periapsis: 88.9603 deg

Mean anomaly: 271.4174 deg

Mean motion: 14.81521393 rev/day

Mean motion (dot): 0.00000609 rev/day2

B* drag term: 0.000074375 1/REarth

Two-line elements (TLE)

Creation date: May 9, 2025, 2:46 a.m.

Reference frame: TEME

Reference center: EARTH

Epoch: May 8, 2025, 5:55 p.m. UTC

TLE line 0: 0 SL-14 R/B

TLE line 1: 1 21398U 91039B 25128.74687200 .00000609 00000-0 74375-4 0 9992

TLE line 2: 2 21398 82.5234 61.2453 0022376 88.9603 271.4174 14.81521393809240

Live tracking on map

Real-time ground track for satellite SL-14 R/B.

In-orbit conjunctions

A list of the most updated potential collisions computed for object SL-14 R/B.

Target Orbit TCA Probability of collision Miss distance Type
CZ-6A DEB SSO 2025-01-01 23:34:46 0.0001388743 498.0 (m) DEBRIS
NOAA 17 DEB SSO 2024-12-23 11:00:33 0.000172046 23.0 (m) DEBRIS
IRIDIUM 33 DEB LEO 2024-12-07 10:40:58 0.0001004622 660.0 (m) DEBRIS
CZ-4B DEB SSO 2024-11-12 13:15:48 0.0002535088 586.0 (m) DEBRIS
FENGYUN 1C DEB SSO 2024-06-23 10:16:29 0.0004260468 183.0 (m) DEBRIS

Associated space launch

Ocean observation satellite

SL-14 R/B was lifted into orbit during the mission ‘Tsiklon-3 | Okean-O1 6’, on board a Tsiklon-3 space rocket.

The launch took place on June 4, 1991, 8:10 a.m. from 32/2.

For more information about the launch, click the button.

Launch to space Tsiklon-3 | Okean-O1 6
Tsiklon-3 | Okean-O1 6

Agency: N/A

Status: Launch Successful

Launch date: June 4, 1991, 8:10 a.m. UTC

Rocket: Tsiklon-3

Launch pad: 32/2

Location: Plesetsk Cosmodrome, Russian Federation

...

Latest news about this satellite

There are no fresh news available about this satellite. Check back as we update our databases every day.


Newsletter sign-up

Weekly statistics, charts and insights to help you stay on top of the space industry.